"startDT [UTC]","vpos","CH4 [ppm]","stdev(CH4) [ppm]","CO2 [ppm]","stdev(CO2) [ppm]","H2O [ppm]","stdev(H2O)","p_LGR [torr]","T_LGR [C]","mt1_LGR [us]","mt2_LGR [us]","T_ECpre [C]","T_EC1 [C]","T_EC2 [C]","p_inlet [hPa]","p_in [hPa]","p_out [hPa]","T_inlet [C]","RH_inlet [%]","dwpt_inlet [C]","T_vent [C]","RH_vent [%]","dwpt_vent [C]","flow_vent [l min-1]","flow_inlet [l min-1]","dwpt_sample [C]","T_room [C]"
2012-01-13 00:00:00,0.0,1.9193,0.0008,402.49,0.27,-1.0,0.0,138.13,28.12,24.59,36.31,0.04,-272.74,-272.74,-47,552,-936,22.5,0.8,-38.1,22.5,0.9,-37.8,5.73,2.31,-32.7,27.4
2012-01-13 00:01:00,0.0,1.9190,0.0008,402.51,0.21,-1.0,0.0,138.13,28.12,24.60,36.30,0.04,-272.74,-272.74,-48,551,-935,22.5,0.8,-38.0,22.5,0.9,-37.6,5.73,2.48,-32.7,27.5
2012-01-13 00:02:00,0.0,1.9187,0.0008,402.53,0.22,-1.0,0.0,138.13,28.12,24.60,36.31,0.04,-272.74,-272.74,-47,552,-936,22.5,0.9,-37.4,22.5,0.9,-37.1,5.73,2.45,-32.7,27.4
2012-01-13 00:03:00,0.0,1.9193,0.0010,402.53,0.22,-1.0,0.0,138.13,28.11,24.59,36.30,0.04,-272.74,-272.74,-47,552,-935,22.5,0.9,-37.3,22.5,0.9,-37.1,5.73,2.31,-32.7,27.4
2012-01-13 00:04:00,0.0,1.9190,0.0009,402.50,0.24,-1.0,0.0,138.13,28.11,24.59,36.30,0.04,-272.74,-272.74,-48,552,-935,22.5,0.9,-37.7,22.5,0.9,-37.4,5.73,2.53,-32.7,27.5
2012-01-13 00:05:00,0.0,1.9188,0.0009,402.39,0.20,-1.0,0.0,138.13,28.11,24.59,36.30,0.04,-272.74,-272.74,-47,552,-936,22.5,0.9,-37.9,22.5,0.9,-37.6,5.73,2.39,-32.7,27.5
2012-01-13 00:06:00,0.0,1.9187,0.0010,402.21,0.22,-1.0,0.0,138.13,28.10,24.59,36.30,0.04,-272.74,-272.74,-47,552,-936,22.5,0.8,-38.2,22.5,0.9,-37.8,5.73,2.35,-32.8,27.5
2012-01-13 00:07:00,0.0,1.9178,0.0010,402.17,0.22,-1.0,0.0,138.13,28.10,24.59,36.30,0.04,-272.75,-272.74,-47,551,-936,22.5,0.8,-38.3,22.5,0.8,-37.9,5.73,2.54,-32.7,27.4
2012-01-13 00:08:00,0.0,1.9174,0.0008,402.17,0.21,-1.0,0.0,138.13,28.10,24.59,36.30,0.04,-272.74,-272.74,-48,552,-935,22.5,0.8,-38.2,22.5,0.8,-37.9,5.73,2.33,-32.8,27.5
2012-01-13 00:09:00,0.0,1.9175,0.0009,402.25,0.22,-1.0,0.0,138.13,28.10,24.60,36.30,0.04,-272.74,-272.74,-47,552,-936,22.4,0.8,-38.2,22.5,0.8,-37.9,5.73,2.42,-32.8,27.4
2012-01-13 00:10:00,0.0,1.9177,0.0010,402.22,0.19,-1.0,0.0,138.13,28.09,24.60,36.30,0.04,-272.74,-272.74,-47,552,-936,22.5,0.8,-38.1,22.5,0.9,-37.9,5.73,2.51,-32.8,27.4
2012-01-13 00:11:00,0.0,1.9183,0.0010,402.37,0.24,-1.0,0.0,138.13,28.09,24.60,36.30,0.04,-272.74,-272.74,-47,552,-935,22.4,0.8,-38.0,22.5,0.9,-37.6,5.73,2.31,-32.8,27.4
2012-01-13 00:12:00,0.0,1.9188,0.0011,402.45,0.20,-1.0,0.0,138.13,28.08,24.59,36.30,0.04,-272.74,-272.74,-47,552,-936,22.4,0.9,-37.7,22.5,0.9,-37.4,5.73,2.48,-32.8,27.5
2012-01-13 00:13:00,0.0,1.9194,0.0011,402.59,0.29,-1.0,0.0,138.13,28.08,24.60,36.30,0.04,-272.74,-272.74,-47,552,-936,22.4,0.9,-37.4,22.5,0.9,-37.0,5.73,2.47,-32.8,27.4
2012-01-13 00:14:00,0.0,1.9185,0.0013,402.34,0.29,-1.0,0.0,138.13,28.08,24.59,36.30,0.04,-272.74,-272.74,-47,551,-936,22.4,0.9,-37.4,22.5,0.9,-37.0,5.73,2.31,-32.8,27.4
2012-01-13 00:15:00,0.0,1.9169,0.0010,402.09,0.20,-1.0,0.0,138.13,28.08,24.60,36.30,0.04,-272.74,-272.74,-47,552,-936,22.4,0.9,-37.2,22.5,1.0,-36.8,5.73,2.52,-32.8,27.4
2012-01-13 00:16:00,0.0,1.9171,0.0010,402.19,0.20,-1.0,0.0,138.13,28.08,24.60,36.30,0.04,-272.74,-272.74,-47,552,-936,22.4,0.9,-37.0,22.5,1.0,-36.7,5.73,2.40,-32.8,27.4
2012-01-13 00:17:00,0.0,1.9181,0.0010,402.28,0.27,-1.0,0.0,138.13,28.08,24.59,36.30,0.04,-272.74,-272.74,-47,551,-936,22.4,0.9,-37.0,22.5,1.0,-36.6,5.73,2.35,-32.8,27.4
2012-01-13 00:18:00,0.0,1.9169,0.0010,402.09,0.17,-1.0,0.0,138.13,28.07,24.60,36.30,0.04,-272.73,-272.74,-47,551,-936,22.4,0.9,-37.0,22.5,1.0,-36.5,5.73,2.54,-32.8,27.4
2012-01-13 00:19:00,0.0,1.9166,0.0009,402.01,0.28,-1.0,0.0,138.13,28.07,24.59,36.30,0.04,-272.74,-272.74,-47,551,-936,22.4,0.9,-37.1,22.5,1.0,-36.7,5.73,2.33,-32.8,27.4
2012-01-13 00:20:00,0.0,1.9166,0.0011,402.10,0.21,-1.0,0.0,138.13,28.07,24.60,36.29,0.04,-272.74,-272.74,-47,551,-936,22.4,0.9,-37.3,22.5,0.9,-36.9,5.73,2.42,-32.8,27.4
2012-01-13 00:21:00,0.0,1.9168,0.0010,401.93,0.22,-1.0,0.0,138.13,28.07,24.59,36.31,0.04,-272.74,-272.74,-48,551,-935,22.4,0.9,-37.4,22.5,0.9,-37.1,5.73,2.52,-32.9,27.4
2012-01-13 00:22:00,0.0,1.9169,0.0007,402.01,0.21,-1.0,0.0,138.13,28.07,24.59,36.30,0.04,-272.74,-272.74,-47,551,-936,22.4,0.9,-37.6,22.5,0.9,-37.2,5.73,2.31,-32.9,27.4
2012-01-13 00:23:00,0.0,1.9171,0.0008,402.07,0.25,-1.0,0.0,138.13,28.06,24.60,36.30,0.04,-272.74,-272.74,-47,551,-935,22.4,0.9,-37.9,22.5,0.9,-37.6,5.73,2.48,-32.9,27.4
2012-01-13 00:24:00,0.0,1.9179,0.0008,402.15,0.21,-1.0,0.0,138.13,28.06,24.59,36.30,0.04,-272.74,-272.75,-48,551,-935,22.4,0.9,-37.9,22.5,0.9,-37.6,5.73,2.47,-32.9,27.4
2012-01-13 00:25:00,0.0,1.9182,0.0009,402.12,0.22,-1.0,0.0,138.13,28.06,24.59,36.30,0.04,-272.74,-272.74,-47,551,-936,22.4,0.9,-37.9,22.5,0.9,-37.6,5.73,2.31,-32.9,27.4
2012-01-13 00:26:00,0.0,1.9181,0.0008,402.22,0.19,-1.0,0.0,138.13,28.05,24.60,36.30,0.04,-272.74,-272.75,-47,551,-935,22.4,0.9,-37.9,22.5,0.9,-37.6,5.73,2.51,-32.9,27.4
2012-01-13 00:27:00,0.0,1.9181,0.0009,402.20,0.23,-1.0,0.0,138.13,28.05,24.60,36.30,0.04,-272.74,-272.74,-47,551,-936,22.4,0.9,-37.9,22.5,0.9,-37.6,5.73,2.42,-32.9,27.4
2012-01-13 00:28:00,0.0,1.9178,0.0009,402.05,0.22,-1.0,0.0,138.13,28.05,24.59,36.31,0.04,-272.74,-272.74,-47,552,-936,22.4,0.9,-37.9,22.5,0.9,-37.7,5.73,2.33,-32.9,27.4
2012-01-13 00:29:00,0.0,1.9177,0.0008,402.18,0.24,-1.0,0.0,138.13,28.05,24.59,36.30,0.04,-272.74,-272.74,-47,551,-936,22.4,0.9,-37.6,22.5,0.9,-37.3,5.73,2.54,-32.9,27.4
2012-01-13 00:30:00,0.0,1.9168,0.0012,401.98,0.26,-1.0,0.0,138.13,28.04,24.60,36.30,0.04,-272.74,-272.74,-47,551,-936,22.4,0.9,-37.6,22.5,0.9,-37.3,5.73,2.35,-32.9,27.4
2012-01-13 00:31:00,0.0,1.9160,0.0009,401.76,0.27,-1.0,0.0,138.13,28.04,24.60,36.30,0.04,-272.74,-272.74,-47,551,-936,22.4,0.9,-37.5,22.5,0.9,-37.1,5.73,2.39,-32.9,27.4
2012-01-13 00:32:00,0.0,1.9154,0.0009,401.80,0.24,-1.0,0.0,138.13,28.04,24.60,36.30,0.04,-272.74,-272.74,-47,551,-935,22.4,0.9,-37.3,22.5,0.9,-37.0,5.73,2.53,-32.9,27.4
2012-01-13 00:33:00,0.0,1.9161,0.0008,401.84,0.22,-1.0,0.0,138.13,28.04,24.59,36.30,0.04,-272.74,-272.74,-47,551,-936,22.4,0.9,-37.2,22.5,1.0,-36.7,5.73,2.32,-33.0,27.4
2012-01-13 00:34:00,0.0,1.9165,0.0010,401.95,0.23,-1.0,0.0,138.13,28.04,24.59,36.30,0.04,-272.74,-272.74,-47,551,-936,22.4,0.9,-37.1,22.5,1.0,-36.7,5.73,2.45,-33.0,27.4
2012-01-13 00:35:00,0.0,1.9180,0.0013,402.15,0.22,-1.0,0.0,138.13,28.03,24.60,36.31,0.04,-272.74,-272.74,-47,551,-935,22.4,1.0,-36.8,22.5,1.0,-36.4,5.73,2.50,-33.0,27.3
2012-01-13 00:36:00,0.0,1.9185,0.0009,402.17,0.23,-1.0,0.0,138.13,28.03,24.59,36.30,0.04,-272.74,-272.74,-47,551,-936,22.4,1.0,-36.7,22.5,1.0,-36.4,5.73,2.30,-33.0,27.4
2012-01-13 00:37:00,0.0,1.9178,0.0010,402.18,0.19,-1.0,0.0,138.13,28.03,24.59,36.29,0.04,-272.74,-272.74,-47,551,-936,22.4,1.0,-36.7,22.4,1.0,-36.5,5.73,2.50,-33.0,27.4
2012-01-13 00:38:00,0.0,1.9179,0.0009,402.17,0.27,-1.0,0.0,138.13,28.03,24.59,36.30,0.04,-272.74,-272.74,-47,551,-935,22.4,1.0,-36.8,22.4,1.0,-36.5,5.73,2.44,-33.0,27.4
2012-01-13 00:39:00,0.0,1.9171,0.0007,402.03,0.23,-1.0,0.0,138.13,28.02,24.59,36.29,0.04,-272.74,-272.74,-47,551,-936,22.4,1.0,-36.9,22.4,1.0,-36.5,5.73,2.32,-33.0,27.4
2012-01-13 00:40:00,0.0,1.9166,0.0011,401.94,0.21,-1.0,0.0,138.13,28.02,24.59,36.30,0.04,-272.74,-272.74,-47,551,-935,22.4,0.9,-37.0,22.4,1.0,-36.7,5.73,2.53,-33.0,27.4
2012-01-13 00:41:00,0.0,1.9160,0.0008,401.90,0.22,-1.0,0.0,138.13,28.02,24.59,36.30,0.04,-272.74,-272.74,-48,551,-936,22.4,0.9,-37.3,22.4,1.0,-36.8,5.73,2.39,-33.0,27.3
2012-01-13 00:42:00,0.0,1.9162,0.0012,402.01,0.25,-1.0,0.0,138.13,28.01,24.59,36.30,0.04,-272.74,-272.74,-47,551,-936,22.4,0.9,-37.3,22.4,0.9,-37.0,5.73,2.35,-33.0,27.4
2012-01-13 00:43:00,0.0,1.9175,0.0009,402.04,0.23,-1.0,0.0,138.13,28.01,24.59,36.30,0.04,-272.74,-272.74,-47,551,-936,22.3,0.9,-37.3,22.4,0.9,-37.0,5.73,2.54,-33.0,27.4
2012-01-13 00:44:00,0.0,1.9180,0.0009,402.23,0.21,-1.0,0.0,138.13,28.01,24.59,36.30,0.04,-272.74,-272.74,-48,551,-936,22.4,0.9,-37.4,22.4,0.9,-37.0,5.73,2.34,-33.0,27.3
2012-01-13 00:45:00,0.0,1.9167,0.0009,402.10,0.22,-1.0,0.0,138.13,28.01,24.60,36.30,0.04,-272.74,-272.73,-47,551,-935,22.4,0.9,-37.3,22.4,0.9,-37.1,5.73,2.40,-33.0,27.3
2012-01-13 00:46:00,0.0,1.9155,0.0011,401.92,0.32,-1.0,0.0,138.13,28.00,24.59,36.29,0.04,-272.74,-272.74,-47,551,-935,22.4,0.9,-37.4,22.4,0.9,-37.0,5.73,2.53,-33.1,27.4
2012-01-13 00:47:00,0.0,1.9150,0.0008,401.86,0.24,-1.0,0.0,138.13,28.00,24.59,36.29,0.04,-272.74,-272.74,-47,551,-936,22.3,0.9,-37.4,22.4,0.9,-37.0,5.73,2.32,-33.0,27.4
2012-01-13 00:48:00,0.0,1.9142,0.0008,401.71,0.23,-1.0,0.0,138.13,28.00,24.60,36.30,0.04,-272.74,-272.74,-47,552,-935,22.4,0.9,-37.4,22.4,0.9,-37.0,5.73,2.44,-33.0,27.3
2012-01-13 00:49:00,0.0,1.9142,0.0009,401.68,0.23,-1.0,0.0,138.13,28.00,24.59,36.29,0.04,-272.74,-272.74,-47,551,-935,22.4,0.9,-37.1,22.4,1.0,-36.8,5.73,2.51,-33.0,27.4
2012-01-13 00:50:00,0.0,1.9139,0.0010,401.61,0.25,-1.0,0.0,138.13,28.00,24.59,36.29,0.04,-272.74,-272.74,-47,551,-935,22.3,0.9,-37.0,22.4,1.0,-36.7,5.73,2.31,-33.0,27.4
2012-01-13 00:51:00,0.0,1.9139,0.0010,401.59,0.21,-1.0,0.0,138.13,27.99,24.60,36.30,0.04,-272.74,-272.74,-48,552,-936,22.3,0.9,-37.0,22.4,1.0,-36.6,5.73,2.49,-33.0,27.3
2012-01-13 00:52:00,0.0,1.9138,0.0008,401.78,0.19,-1.0,0.0,138.13,27.99,24.60,36.29,0.04,-272.74,-272.74,-47,553,-936,22.3,1.0,-36.9,22.4,1.0,-36.5,5.73,2.45,-33.0,27.4
2012-01-13 00:53:00,0.0,1.9137,0.0010,401.71,0.22,-1.0,0.0,138.13,27.99,24.59,36.29,0.04,-272.74,-272.74,-47,554,-936,22.3,1.0,-36.8,22.4,1.0,-36.4,5.73,2.32,-33.0,27.4
2012-01-13 00:54:00,0.0,1.9139,0.0008,401.72,0.23,-1.0,0.0,138.13,27.99,24.59,36.29,0.04,-272.74,-272.74,-47,552,-936,22.3,1.0,-36.7,22.4,1.0,-36.3,5.73,2.53,-33.0,27.4
2012-01-13 00:55:00,0.0,1.9143,0.0008,401.78,0.23,-1.0,0.0,138.13,27.98,24.59,36.29,0.04,-272.74,-272.74,-49,552,-937,22.3,1.0,-36.5,22.4,1.0,-36.2,5.73,2.40,-33.0,27.4
2012-01-13 00:56:00,0.0,1.9142,0.0009,401.74,0.28,-1.0,0.0,138.13,27.98,24.59,36.29,0.04,-272.74,-272.74,-50,553,-936,22.3,1.0,-36.5,22.4,1.0,-36.2,5.73,2.35,-33.0,27.4
2012-01-13 00:57:00,0.0,1.9142,0.0009,401.66,0.26,-1.0,0.0,138.13,27.98,24.59,36.30,0.04,-272.74,-272.74,-50,551,-935,22.3,1.0,-36.7,22.4,1.0,-36.2,5.73,2.54,-33.0,27.3
2012-01-13 00:58:00,0.0,1.9141,0.0008,401.71,0.21,-1.0,0.0,138.13,27.97,24.59,36.30,0.04,-272.74,-272.74,-45,551,-937,22.3,1.0,-36.8,22.4,1.0,-36.4,5.73,2.36,-33.0,27.3
2012-01-13 00:59:00,0.0,1.9144,0.0010,401.65,0.21,-1.0,0.0,138.13,27.97,24.59,36.30,0.04,-272.74,-272.74,-49,551,-934,22.3,1.0,-36.8,22.3,1.0,-36.3,5.73,2.38,-33.1,27.3
2012-01-13 01:00:00,0.0,1.9143,0.0010,401.57,0.21,-1.0,0.0,138.13,27.97,24.59,36.29,0.04,-272.74,-272.74,-47,552,-939,22.3,1.0,-36.6,22.4,1.0,-36.2,5.73,2.54,-33.1,27.3
2012-01-13 01:01:00,0.0,1.9136,0.0010,401.68,0.21,-1.0,0.0,138.13,27.97,24.59,36.29,0.04,-272.74,-272.74,-47,551,-934,22.3,1.0,-36.5,22.4,1.0,-36.2,5.73,2.33,-33.1,27.3
2012-01-13 01:02:00,0.0,1.9138,0.0008,401.62,0.23,-1.0,0.0,138.14,27.96,24.59,36.29,0.04,-272.74,-272.74,-46,551,-935,22.3,1.0,-36.5,22.4,1.0,-36.2,5.73,2.42,-33.1,27.3
2012-01-13 01:03:00,0.0,1.9132,0.0011,401.66,0.26,-1.0,0.0,138.14,27.96,24.59,36.29,0.04,-272.74,-272.74,-47,551,-936,22.3,1.0,-36.5,22.3,1.0,-36.2,5.73,2.52,-33.1,27.3
2012-01-13 01:04:00,0.0,1.9128,0.0009,401.52,0.19,-1.0,0.0,138.13,27.96,24.59,36.29,0.04,-272.74,-272.74,-48,551,-936,22.3,1.0,-36.5,22.3,1.0,-36.1,5.73,2.31,-33.1,27.3
2012-01-13 01:05:00,0.0,1.9134,0.0008,401.55,0.23,-1.0,0.0,138.13,27.95,24.59,36.30,0.04,-272.74,-272.74,-47,551,-936,22.3,1.0,-36.2,22.3,1.0,-36.0,5.73,2.49,-33.1,27.3
2012-01-13 01:06:00,0.0,1.9139,0.0010,401.73,0.24,-1.0,0.0,138.13,27.95,24.59,36.29,0.04,-272.74,-272.74,-47,551,-936,22.3,1.0,-36.2,22.3,1.0,-35.9,5.73,2.46,-33.1,27.3
2012-01-13 01:07:00,0.0,1.9142,0.0011,401.66,0.19,-1.0,0.0,138.13,27.95,24.59,36.30,0.04,-272.74,-272.74,-47,551,-936,22.3,1.0,-36.2,22.3,1.1,-35.8,5.73,2.31,-33.1,27.3
2012-01-13 01:08:00,0.0,1.9135,0.0010,401.65,0.27,-1.0,0.0,138.13,27.95,24.60,36.29,0.04,-272.74,-272.74,-47,551,-936,22.3,1.0,-36.2,22.3,1.1,-35.7,5.73,2.53,-33.1,27.3
2012-01-13 01:09:00,0.0,1.9144,0.0010,401.76,0.26,-1.0,0.0,138.13,27.94,24.59,36.29,0.04,-272.74,-272.74,-47,551,-936,22.3,1.0,-36.0,22.4,1.1,-35.5,5.73,2.40,-33.1,27.3
2012-01-13 01:10:00,0.0,1.9137,0.0011,401.64,0.23,-1.0,0.0,138.13,27.94,24.59,36.29,0.04,-272.74,-272.74,-47,551,-936,22.3,1.0,-36.2,22.3,1.1,-35.8,5.73,2.35,-33.1,27.3
2012-01-13 01:11:00,0.0,1.9135,0.0009,401.74,0.22,-1.0,0.0,138.13,27.94,24.59,36.29,0.04,-272.74,-272.74,-47,551,-936,22.3,1.0,-36.4,22.3,1.0,-36.1,5.73,2.54,-33.1,27.2
2012-01-13 01:12:00,0.0,1.9133,0.0008,401.69,0.24,-1.0,0.0,138.14,27.94,24.59,36.28,0.04,-272.74,-272.74,-47,551,-936,22.3,1.0,-36.6,22.3,1.0,-36.3,5.73,2.33,-33.1,27.3
2012-01-13 01:13:00,0.0,1.9138,0.0010,401.62,0.23,-1.0,0.0,138.13,27.94,24.59,36.30,0.04,-272.74,-272.74,-47,550,-936,22.3,0.9,-36.9,22.3,1.0,-36.5,5.73,2.43,-33.1,27.3
2012-01-13 01:14:00,0.0,1.9149,0.0008,401.84,0.23,-1.0,0.0,138.14,27.93,24.59,36.30,0.04,-272.74,-272.74,-47,551,-936,22.3,0.9,-37.0,22.3,1.0,-36.8,5.73,2.51,-33.1,27.3
2012-01-13 01:15:00,0.0,1.9151,0.0008,401.88,0.21,-1.0,0.0,138.13,27.93,24.59,36.29,0.04,-272.74,-272.74,-47,551,-936,22.3,0.9,-37.1,22.3,1.0,-36.8,5.73,2.31,-33.1,27.3
2012-01-13 01:16:00,0.0,1.9144,0.0008,401.90,0.22,-1.0,0.0,138.13,27.93,24.59,36.29,0.04,-272.74,-272.74,-47,551,-936,22.3,0.9,-36.9,22.3,1.0,-36.5,5.73,2.50,-33.1,27.3
2012-01-13 01:17:00,0.0,1.9133,0.0009,401.71,0.29,-1.0,0.0,138.13,27.92,24.60,36.29,0.04,-272.74,-272.74,-47,551,-936,22.3,0.9,-37.0,22.3,1.0,-36.5,5.73,2.45,-33.1,27.2
2012-01-13 01:18:00,0.0,1.9131,0.0010,401.60,0.21,-1.0,0.0,138.13,27.92,24.59,36.30,0.04,-272.74,-272.74,-47,551,-936,22.3,0.9,-37.0,22.3,1.0,-36.7,5.73,2.32,-33.1,27.2
2012-01-13 01:19:00,0.0,1.9132,0.0010,401.66,0.27,-1.0,0.0,138.13,27.92,24.59,36.29,0.04,-272.74,-272.74,-47,551,-936,22.3,0.9,-37.2,22.3,1.0,-36.7,5.73,2.54,-33.1,27.2
2012-01-13 01:20:00,0.0,1.9137,0.0009,401.79,0.25,-1.0,0.0,138.14,27.92,24.59,36.29,0.04,-272.74,-272.74,-47,551,-936,22.3,0.9,-37.4,22.3,0.9,-37.0,5.73,2.39,-33.2,27.2
2012-01-13 01:21:00,0.0,1.9134,0.0009,401.60,0.22,-1.0,0.0,138.14,27.92,24.59,36.30,0.04,-272.74,-272.74,-47,551,-936,22.3,0.9,-37.6,22.3,0.9,-37.0,5.73,2.36,-33.2,27.2
2012-01-13 01:22:00,0.0,1.9141,0.0012,401.64,0.21,-1.0,0.0,138.13,27.91,24.59,36.29,0.04,-272.74,-272.74,-47,551,-935,22.3,0.9,-37.7,22.3,0.9,-37.3,5.73,2.54,-33.2,27.2
2012-01-13 01:23:00,0.0,1.9144,0.0010,401.80,0.18,-1.0,0.0,138.13,27.91,24.59,36.29,0.04,-272.74,-272.74,-47,551,-936,22.3,0.9,-37.7,22.3,0.9,-37.3,5.73,2.33,-33.1,27.2
2012-01-13 01:24:00,0.0,1.9148,0.0009,401.85,0.24,-1.0,0.0,138.14,27.91,24.59,36.29,0.04,-272.74,-272.74,-47,551,-936,22.3,0.9,-37.7,22.3,0.9,-37.2,5.73,2.43,-33.2,27.2
2012-01-13 01:25:00,0.0,1.9148,0.0009,401.86,0.22,-1.0,0.0,138.14,27.90,24.59,36.29,0.04,-272.74,-272.74,-47,551,-936,22.3,0.9,-37.5,22.3,0.9,-37.1,5.73,2.52,-33.2,27.2
2012-01-13 01:26:00,0.0,1.9144,0.0010,401.86,0.24,-1.0,0.0,138.14,27.90,24.59,36.29,0.04,-272.74,-272.74,-47,551,-936,22.3,0.9,-37.4,22.3,0.9,-37.1,5.73,2.31,-33.1,27.2
2012-01-13 01:27:00,0.0,1.9146,0.0008,401.88,0.25,-1.0,0.0,138.14,27.90,24.59,36.29,0.04,-272.74,-272.74,-47,550,-936,22.2,0.9,-37.3,22.3,0.9,-36.9,5.73,2.48,-33.2,27.1
2012-01-13 01:28:00,0.0,1.9147,0.0009,401.86,0.26,-1.0,0.0,138.14,27.89,24.59,36.29,0.04,-272.74,-272.74,-47,551,-936,22.2,0.9,-37.2,22.3,1.0,-36.8,5.73,2.47,-33.2,27.2
2012-01-13 01:29:00,0.0,1.9147,0.0009,401.81,0.22,-1.0,0.0,138.14,27.89,24.59,36.29,0.04,-272.74,-272.74,-47,551,-935,22.3,0.9,-37.1,22.3,1.0,-36.8,5.73,2.31,-33.2,27.2
2012-01-13 01:30:00,0.0,1.9145,0.0009,401.87,0.23,-1.0,0.0,138.14,27.89,24.59,36.29,0.04,-272.74,-272.74,-47,551,-936,22.3,0.9,-37.1,22.3,1.0,-36.8,5.73,2.53,-33.2,27.2
2012-01-13 01:31:00,0.0,1.9146,0.0009,401.93,0.23,-1.0,0.0,138.14,27.88,24.59,36.29,0.04,-272.74,-272.74,-47,550,-936,22.3,0.9,-37.1,22.3,1.0,-36.7,5.73,2.39,-33.2,27.2
2012-01-13 01:32:00,0.0,1.9149,0.0010,402.01,0.27,-1.0,0.0,138.14,27.88,24.59,36.29,0.04,-272.74,-272.74,-47,550,-936,22.3,0.9,-37.1,22.3,1.0,-36.8,5.73,2.36,-33.2,27.2
2012-01-13 01:33:00,0.0,1.9147,0.0010,401.88,0.20,-1.0,0.0,138.14,27.88,24.59,36.30,0.04,-272.74,-272.74,-47,550,-936,22.3,0.9,-37.3,22.3,1.0,-36.9,5.73,2.54,-33.2,27.2
2012-01-13 01:34:00,0.0,1.9162,0.0010,402.05,0.21,-1.0,0.0,138.14,27.88,24.59,36.29,0.04,-272.74,-272.74,-47,551,-936,22.2,0.9,-37.6,22.3,0.9,-37.2,5.73,2.34,-33.2,27.2
2012-01-13 01:35:00,0.0,1.9162,0.0009,402.10,0.21,-1.0,0.0,138.14,27.88,24.59,36.29,0.04,-272.74,-272.74,-47,551,-936,22.2,0.9,-38.0,22.3,0.9,-37.7,5.73,2.42,-33.2,27.2
2012-01-13 01:36:00,0.0,1.9165,0.0010,402.07,0.25,-1.0,0.0,138.14,27.87,24.59,36.29,0.04,-272.74,-272.74,-47,550,-935,22.2,0.8,-38.3,22.3,0.9,-37.8,5.73,2.52,-33.2,27.1
2012-01-13 01:37:00,0.0,1.9161,0.0010,401.95,0.20,-1.0,0.0,138.14,27.87,24.59,36.30,0.04,-272.74,-272.74,-47,551,-936,22.2,0.8,-38.4,22.3,0.8,-38.1,5.73,2.32,-33.2,27.2
2012-01-13 01:38:00,0.0,1.9159,0.0008,402.04,0.22,-1.0,0.0,138.14,27.87,24.59,36.29,0.04,-272.74,-272.74,-47,551,-936,22.2,0.8,-38.7,22.3,0.8,-38.3,5.73,2.45,-33.2,27.2
2012-01-13 01:39:00,0.0,1.9160,0.0011,401.97,0.23,-1.0,0.0,138.14,27.86,24.59,36.29,0.04,-272.74,-272.74,-47,550,-936,22.2,0.8,-38.7,22.3,0.8,-38.3,5.73,2.50,-33.2,27.2
2012-01-13 01:40:00,0.0,1.9166,0.0010,402.05,0.22,-1.0,0.0,138.14,27.86,24.59,36.29,0.04,-272.74,-272.74,-47,550,-936,22.2,0.8,-38.6,22.3,0.8,-38.4,5.73,2.31,-33.2,27.2
2012-01-13 01:41:00,0.0,1.9146,0.0012,401.76,0.23,-1.0,0.0,138.14,27.85,24.59,36.30,0.04,-272.74,-272.74,-47,550,-936,22.2,0.8,-38.7,22.3,0.8,-38.3,5.73,2.49,-33.2,27.1
2012-01-13 01:42:00,0.0,1.9141,0.0010,401.67,0.22,-1.0,0.0,138.14,27.85,24.59,36.29,0.04,-272.74,-272.74,-47,551,-936,22.2,0.8,-38.7,22.3,0.8,-38.0,5.73,2.45,-33.2,27.2
2012-01-13 01:43:00,0.0,1.9143,0.0010,401.67,0.24,-1.0,0.0,138.14,27.85,24.59,36.29,0.04,-272.74,-272.74,-47,550,-936,22.2,0.8,-38.6,22.2,0.9,-38.0,5.73,2.32,-33.2,27.2
2012-01-13 01:44:00,0.0,1.9141,0.0009,401.63,0.27,-1.0,0.0,138.14,27.85,24.59,36.29,0.04,-272.74,-272.74,-47,551,-936,22.2,0.8,-38.6,22.2,0.8,-38.3,5.73,2.52,-33.2,27.1
2012-01-13 01:45:00,0.0,1.9154,0.0011,401.79,0.21,-1.0,0.0,138.14,27.84,24.59,36.29,0.04,-272.74,-272.74,-47,550,-936,22.2,0.8,-38.7,22.2,0.8,-38.4,5.73,2.42,-33.2,27.2
2012-01-13 01:46:00,0.0,1.9164,0.0011,402.00,0.21,-1.0,0.0,138.14,27.84,24.59,36.30,0.04,-272.74,-272.74,-47,550,-936,22.2,0.8,-39.0,22.2,0.8,-38.6,5.73,2.33,-33.3,27.2
2012-01-13 01:47:00,0.0,1.9178,0.0011,402.12,0.24,-1.0,0.0,138.14,27.84,24.59,36.30,0.04,-272.74,-272.74,-47,550,-936,22.2,0.8,-39.0,22.2,0.8,-38.7,5.73,2.54,-33.2,27.1
2012-01-13 01:48:00,0.0,1.9173,0.0009,402.16,0.24,-1.0,0.0,138.14,27.84,24.59,36.29,0.04,-272.74,-272.74,-47,551,-936,22.2,0.7,-39.3,22.2,0.8,-39.0,5.73,2.39,-33.2,27.1
2012-01-13 01:49:00,0.0,1.9156,0.0009,401.88,0.26,-1.0,0.0,138.14,27.83,24.59,36.30,0.04,-272.73,-272.74,-47,550,-936,22.2,0.8,-39.0,22.2,0.8,-38.7,5.73,2.36,-33.3,27.1
2012-01-13 01:50:00,0.0,1.9157,0.0009,401.94,0.20,-1.0,0.0,138.14,27.83,24.59,36.29,0.04,-272.74,-272.74,-47,550,-936,22.2,0.8,-38.8,22.2,0.8,-38.5,5.73,2.54,-33.3,27.2
2012-01-13 01:51:00,0.0,1.9155,0.0010,401.88,0.21,-1.0,0.0,138.14,27.83,24.59,36.29,0.04,-272.74,-272.74,-47,550,-936,22.2,0.8,-38.6,22.2,0.8,-38.2,5.73,2.35,-33.3,27.1
2012-01-13 01:52:00,0.0,1.9151,0.0009,401.83,0.29,-1.0,0.0,138.14,27.83,24.59,36.29,0.04,-272.73,-272.74,-46,550,-936,22.1,0.8,-38.4,22.2,0.9,-38.0,5.73,2.40,-33.3,27.1
2012-01-13 01:53:00,0.0,1.9155,0.0009,401.87,0.24,-1.0,0.0,138.14,27.83,24.59,36.29,0.04,-272.74,-272.74,-47,550,-936,22.1,0.9,-38.1,22.2,0.9,-37.7,5.73,2.54,-33.3,27.1
2012-01-13 01:54:00,0.0,1.9165,0.0010,402.04,0.22,-1.0,0.0,138.14,27.83,24.59,36.28,0.04,-272.74,-272.74,-47,550,-936,22.1,0.9,-37.9,22.2,0.9,-37.6,5.73,2.32,-33.3,27.1
2012-01-13 01:55:00,0.0,1.9161,0.0010,401.99,0.24,-1.0,0.0,138.14,27.83,24.59,36.29,0.04,-272.74,-272.74,-47,550,-936,22.1,0.9,-37.6,22.2,0.9,-37.3,5.73,2.44,-33.3,27.1
2012-01-13 01:56:00,0.0,1.9159,0.0008,402.06,0.22,-1.0,0.0,138.14,27.82,24.59,36.29,0.04,-272.73,-272.74,-47,550,-936,22.1,0.9,-37.5,22.2,0.9,-37.1,5.73,2.51,-33.3,27.1
2012-01-13 01:57:00,0.0,1.9160,0.0008,401.99,0.30,-1.0,0.0,138.14,27.82,24.59,36.29,0.04,-272.74,-272.74,-47,550,-936,22.1,0.9,-37.2,22.2,1.0,-36.8,5.73,2.31,-33.3,27.1
2012-01-13 01:58:00,0.0,1.9163,0.0009,402.00,0.22,-1.0,0.0,138.14,27.82,24.59,36.30,0.04,-272.74,-272.74,-47,550,-936,22.1,0.9,-37.1,22.2,1.0,-36.6,5.73,2.48,-33.3,27.1
2012-01-13 01:59:00,0.0,1.9166,0.0010,402.04,0.24,-1.0,0.0,138.14,27.81,24.59,36.30,0.04,-272.74,-272.74,-47,550,-935,22.1,1.0,-36.7,22.2,1.0,-36.4,5.73,2.47,-33.3,27.1
2012-01-13 02:00:00,0.0,1.9160,0.0010,402.02,0.23,-1.0,0.0,138.14,27.81,24.59,36.29,0.04,-272.74,-272.74,-47,550,-936,22.1,1.0,-36.5,22.2,1.0,-36.2,5.73,2.31,-33.4,27.1
2012-01-13 02:01:00,0.0,1.9157,0.0010,402.02,0.22,-1.0,0.0,138.14,27.81,24.59,36.29,0.04,-272.74,-272.74,-47,550,-936,22.1,1.0,-36.3,22.2,1.0,-36.0,5.73,2.52,-33.4,27.1
2012-01-13 02:02:00,0.0,1.9153,0.0009,401.96,0.24,-1.0,0.0,138.14,27.80,24.59,36.30,0.04,-272.73,-272.74,-46,550,-936,22.1,1.0,-36.0,22.2,1.1,-35.8,5.73,2.42,-33.4,27.1
2012-01-13 02:03:00,0.0,1.9156,0.0009,401.98,0.25,-1.0,0.0,138.14,27.80,24.59,36.29,0.04,-272.74,-272.74,-47,550,-936,22.1,1.1,-35.9,22.2,1.1,-35.6,5.73,2.34,-33.4,27.1
2012-01-13 02:04:00,0.0,1.9165,0.0010,402.03,0.20,-1.0,0.0,138.14,27.80,24.59,36.29,0.04,-272.74,-272.74,-47,550,-936,22.1,1.1,-35.6,22.2,1.1,-35.3,5.73,2.54,-33.4,27.1
2012-01-13 02:05:00,0.0,1.9155,0.0009,401.91,0.21,-1.0,0.0,138.14,27.79,24.59,36.30,0.04,-272.74,-272.74,-47,550,-936,22.1,1.1,-35.6,22.2,1.1,-35.3,5.73,2.36,-33.4,27.1
2012-01-13 02:06:00,0.0,1.9155,0.0009,401.91,0.22,-1.0,0.0,138.14,27.79,24.59,36.30,0.04,-272.74,-272.74,-47,550,-936,22.1,1.1,-35.5,22.2,1.2,-35.1,5.73,2.39,-33.4,27.1
2012-01-13 02:07:00,0.0,1.9155,0.0009,402.02,0.23,-1.0,0.0,138.14,27.78,24.59,36.29,0.04,-272.74,-272.74,-47,550,-936,22.1,1.1,-35.5,22.2,1.2,-35.1,5.73,2.53,-33.4,27.1
2012-01-13 02:08:00,0.0,1.9158,0.0009,401.96,0.23,-1.0,0.0,138.14,27.78,24.59,36.30,0.04,-272.74,-272.74,-47,550,-936,22.1,1.1,-35.9,22.2,1.1,-35.5,5.73,2.32,-33.4,27.1
2012-01-13 02:09:00,0.0,1.9158,0.0009,402.06,0.24,-1.0,0.0,138.14,27.78,24.59,36.29,0.04,-272.74,-272.74,-47,550,-936,22.1,1.0,-36.4,22.2,1.0,-36.0,5.73,2.46,-33.4,27.1
2012-01-13 02:10:00,0.0,1.9159,0.0010,402.00,0.25,-1.0,0.0,138.14,27.78,24.59,36.30,0.04,-272.74,-272.74,-47,550,-936,22.1,1.0,-36.9,22.2,1.0,-36.4,5.73,2.49,-33.4,27.1
2012-01-13 02:11:00,0.0,1.9152,0.0010,402.12,0.22,-1.0,0.0,138.14,27.77,24.59,36.29,0.04,-272.74,-272.74,-47,550,-936,22.1,0.9,-37.3,22.2,1.0,-36.9,5.73,2.30,-33.4,27.1
2012-01-13 02:12:00,0.0,1.9165,0.0010,402.05,0.25,-1.0,0.0,138.14,27.77,24.59,36.30,0.04,-272.75,-272.74,-47,550,-936,22.1,0.9,-37.5,22.1,0.9,-37.1,5.73,2.51,-33.4,27.1
2012-01-13 02:13:00,0.0,1.9155,0.0009,402.14,0.29,-1.0,0.0,138.14,27.77,24.59,36.29,0.04,-272.74,-272.74,-47,550,-936,22.1,0.9,-37.5,22.2,0.9,-37.2,5.73,2.43,-33.4,27.1
2012-01-13 02:14:00,0.0,1.9155,0.0010,402.12,0.21,-1.0,0.0,138.14,27.76,24.59,36.29,0.04,-272.74,-272.74,-47,550,-935,22.1,0.9,-37.4,22.1,0.9,-37.2,5.73,2.33,-33.4,27.1
2012-01-13 02:15:00,0.0,1.9151,0.0010,402.17,0.25,-1.0,0.0,138.14,27.76,24.59,36.29,0.04,-272.74,-272.74,-47,550,-936,22.1,0.9,-37.5,22.2,0.9,-37.2,5.73,2.53,-33.4,27.1
2012-01-13 02:16:00,0.0,1.9150,0.0010,402.20,0.23,-1.0,0.0,138.14,27.76,24.59,36.29,0.04,-272.74,-272.74,-47,550,-936,22.1,0.9,-37.5,22.1,0.9,-37.1,5.73,2.40,-33.4,27.1
2012-01-13 02:17:00,0.0,1.9144,0.0011,402.13,0.23,-1.0,0.0,138.14,27.76,24.59,36.29,0.04,-272.74,-272.74,-47,550,-936,22.1,0.9,-37.4,22.1,0.9,-37.2,5.73,2.35,-33.4,27.0
2012-01-13 02:18:00,0.0,1.9144,0.0010,401.96,0.23,-1.0,0.0,138.14,27.75,24.59,36.30,0.04,-272.74,-272.74,-47,550,-935,22.1,0.9,-37.5,22.1,1.0,-36.9,5.73,2.54,-33.5,27.0